Time,TemperatureF,DewpointF,PressureIn,WindDirection,WindDirectionDegrees,WindSpeedMPH,WindSpeedGustMPH,Humidity,HourlyPrecipIn,Conditions,Clouds,dailyrainin,SoftwareType,DateUTC
2013-06-28 00:04:00,65.6,63.2,29.56,NE,42,0.0,0.0,92,0.00,,---,0.02,VWS V14.01,2013-06-28 04:04:00,
2013-06-28 00:09:00,65.6,63.2,29.56,NE,42,0.0,0.0,92,0.00,,---,0.02,VWS V14.01,2013-06-28 04:09:00,
2013-06-28 00:14:00,65.6,63.2,29.56,NE,42,0.0,0.0,92,0.00,,---,0.02,VWS V14.01,2013-06-28 04:14:00,
2013-06-28 00:19:00,65.6,63.2,29.55,NE,42,0.0,0.0,92,0.00,,---,0.02,VWS V14.01,2013-06-28 04:19:00,
2013-06-28 00:24:00,65.6,63.5,29.55,NE,42,0.0,0.0,93,0.00,,---,0.02,VWS V14.01,2013-06-28 04:24:00,
2013-06-28 00:29:00,65.6,63.5,29.55,NE,42,0.0,0.0,93,0.00,,---,0.02,VWS V14.01,2013-06-28 04:29:00,
2013-06-28 00:34:00,65.6,63.5,29.54,NE,42,0.0,0.0,93,0.00,,---,0.02,VWS V14.01,2013-06-28 04:34:00,
2013-06-28 00:39:00,65.6,63.5,29.54,NE,42,0.0,0.0,93,0.00,,---,0.02,VWS V14.01,2013-06-28 04:39:00,
2013-06-28 00:44:00,65.6,63.5,29.54,NE,42,0.0,0.0,93,0.00,,---,0.02,VWS V14.01,2013-06-28 04:44:00,
2013-06-28 00:49:00,65.6,63.5,29.54,NE,42,0.0,0.0,93,0.00,,---,0.02,VWS V14.01,2013-06-28 04:49:00,
2013-06-28 00:54:00,65.5,63.4,29.53,NE,42,0.0,0.0,93,0.00,,---,0.02,VWS V14.01,2013-06-28 04:54:00,
2013-06-28 00:59:00,65.5,63.4,29.54,NE,42,0.0,0.0,93,0.00,,---,0.02,VWS V14.01,2013-06-28 04:59:00,
2013-06-28 01:04:00,65.5,63.4,29.53,NE,42,0.0,0.0,93,0.00,,---,0.00,VWS V14.01,2013-06-28 05:04:00,
2013-06-28 01:09:00,65.5,63.4,29.53,NE,42,0.0,0.0,93,0.00,,---,0.00,VWS V14.01,2013-06-28 05:09:00,
2013-06-28 01:14:00,65.5,63.4,29.53,NE,42,0.0,0.0,93,0.01,,---,0.01,VWS V14.01,2013-06-28 05:14:00,
2013-06-28 01:18:00,65.5,63.4,29.53,NE,42,0.0,0.0,93,0.01,,---,0.01,VWS V14.01,2013-06-28 05:18:00,
2013-06-28 01:23:00,65.5,63.4,29.53,NE,42,0.0,0.0,93,0.01,,---,0.01,VWS V14.01,2013-06-28 05:23:00,
2013-06-28 01:28:00,65.5,63.4,29.53,NE,42,0.0,0.0,93,0.01,,---,0.01,VWS V14.01,2013-06-28 05:28:00,
2013-06-28 01:33:00,65.5,63.4,29.53,NE,42,0.0,0.0,93,0.01,,---,0.01,VWS V14.01,2013-06-28 05:33:00,
2013-06-28 01:38:00,65.5,63.4,29.53,NE,42,0.0,0.0,93,0.01,,---,0.01,VWS V14.01,2013-06-28 05:38:00,
2013-06-28 01:43:00,65.5,63.4,29.52,NE,42,0.0,0.0,93,0.01,,---,0.01,VWS V14.01,2013-06-28 05:43:00,
2013-06-28 01:48:00,65.5,63.4,29.52,NE,42,0.0,0.0,93,0.01,,---,0.01,VWS V14.01,2013-06-28 05:48:00,
2013-06-28 01:53:00,65.5,63.4,29.52,NE,42,0.0,0.0,93,0.01,,---,0.01,VWS V14.01,2013-06-28 05:53:00,
2013-06-28 01:58:00,65.6,63.5,29.52,NE,42,0.0,0.0,93,0.01,,---,0.01,VWS V14.01,2013-06-28 05:58:00,
2013-06-28 02:03:00,65.7,63.6,29.52,NE,42,0.0,0.0,93,0.01,,---,0.01,VWS V14.01,2013-06-28 06:03:00,
2013-06-28 02:08:00,65.8,63.7,29.52,NE,42,0.0,0.0,93,0.01,,---,0.01,VWS V14.01,2013-06-28 06:08:00,
2013-06-28 02:13:00,65.8,64.0,29.52,NE,42,0.0,0.0,94,0.01,,---,0.01,VWS V14.01,2013-06-28 06:13:00,
2013-06-28 02:18:00,65.8,63.7,29.51,NE,42,0.0,0.0,93,0.00,,---,0.01,VWS V14.01,2013-06-28 06:18:00,
2013-06-28 02:23:00,65.8,64.0,29.51,NE,42,0.0,0.0,94,0.00,,---,0.01,VWS V14.01,2013-06-28 06:23:00,
2013-06-28 02:28:00,65.8,64.0,29.51,NE,42,0.0,0.0,94,0.00,,---,0.01,VWS V14.01,2013-06-28 06:28:00,
2013-06-28 02:33:00,65.8,64.0,29.51,NE,42,0.0,0.0,94,0.00,,---,0.01,VWS V14.01,2013-06-28 06:33:00,
2013-06-28 02:38:00,65.8,64.0,29.51,NE,42,0.0,0.0,94,0.00,,---,0.01,VWS V14.01,2013-06-28 06:38:00,
2013-06-28 02:43:00,65.8,64.0,29.50,NE,42,0.0,0.0,94,0.00,,---,0.01,VWS V14.01,2013-06-28 06:43:00,
2013-06-28 02:48:00,65.8,64.0,29.50,NE,42,0.0,0.0,94,0.00,,---,0.01,VWS V14.01,2013-06-28 06:48:00,
2013-06-28 02:53:00,65.8,64.0,29.50,NE,42,0.0,0.0,94,0.00,,---,0.01,VWS V14.01,2013-06-28 06:53:00,
2013-06-28 02:58:00,65.8,64.0,29.50,NE,42,0.0,0.0,94,0.00,,---,0.01,VWS V14.01,2013-06-28 06:58:00,
2013-06-28 03:03:00,65.8,64.0,29.50,NE,42,0.0,0.0,94,0.00,,---,0.01,VWS V14.01,2013-06-28 07:03:00,
2013-06-28 03:08:00,65.8,64.0,29.49,NE,42,0.0,0.0,94,0.00,,---,0.01,VWS V14.01,2013-06-28 07:08:00,
2013-06-28 03:13:00,65.8,64.0,29.49,NE,42,0.0,0.0,94,0.00,,---,0.01,VWS V14.01,2013-06-28 07:13:00,
2013-06-28 03:18:00,65.8,64.0,29.49,NE,42,0.0,0.0,94,0.00,,---,0.01,VWS V14.01,2013-06-28 07:18:00,
2013-06-28 03:23:00,65.8,64.0,29.48,NE,42,0.0,0.0,94,0.00,,---,0.01,VWS V14.01,2013-06-28 07:23:00,
2013-06-28 03:28:00,65.9,64.1,29.48,NE,42,0.0,0.0,94,0.00,,---,0.01,VWS V14.01,2013-06-28 07:28:00,
2013-06-28 03:33:00,65.9,64.1,29.48,NE,42,0.0,0.0,94,0.00,,---,0.01,VWS V14.01,2013-06-28 07:33:00,
2013-06-28 03:38:00,65.9,64.1,29.48,NE,42,0.0,0.0,94,0.00,,---,0.01,VWS V14.01,2013-06-28 07:38:00,
2013-06-28 03:43:00,66.0,64.2,29.48,NE,42,0.0,1.0,94,0.00,,---,0.01,VWS V14.01,2013-06-28 07:43:00,
2013-06-28 03:48:00,66.0,64.2,29.48,NE,42,0.0,0.0,94,0.00,,---,0.01,VWS V14.01,2013-06-28 07:48:00,
2013-06-28 03:53:00,66.1,64.3,29.48,NNE,30,0.0,1.0,94,0.00,,---,0.01,VWS V14.01,2013-06-28 07:53:00,
2013-06-28 03:58:00,66.1,64.3,29.48,NNE,28,0.0,1.0,94,0.00,,---,0.01,VWS V14.01,2013-06-28 07:58:00,
2013-06-28 04:03:00,66.2,64.7,29.48,North,5,1.0,4.0,95,0.00,,---,0.01,VWS V14.01,2013-06-28 08:03:00,
2013-06-28 04:08:00,66.3,64.8,29.48,North,5,0.0,4.0,95,0.00,,---,0.01,VWS V14.01,2013-06-28 08:08:00,
2013-06-28 04:09:00,66.3,64.8,29.48,North,5,0.0,4.0,95,0.00,,---,0.01,VWS V14.01,2013-06-28 08:09:00,
2013-06-28 04:14:00,66.3,64.8,29.47,North,5,0.0,1.0,95,0.00,,---,0.01,VWS V14.01,2013-06-28 08:14:00,
2013-06-28 04:19:00,66.3,64.8,29.47,NNE,13,0.0,3.0,95,0.00,,---,0.01,VWS V14.01,2013-06-28 08:19:00,
2013-06-28 04:24:00,66.3,64.8,29.47,NNW,333,0.0,4.0,95,0.00,,---,0.01,VWS V14.01,2013-06-28 08:24:00,
2013-06-28 04:29:00,66.4,64.9,29.47,NNW,332,0.0,2.0,95,0.00,,---,0.01,VWS V14.01,2013-06-28 08:29:00,
2013-06-28 04:34:00,66.4,64.9,29.47,NNW,329,0.0,0.0,95,0.00,,---,0.01,VWS V14.01,2013-06-28 08:34:00,
2013-06-28 04:39:00,66.4,64.9,29.46,NE,43,1.0,1.0,95,0.00,,---,0.01,VWS V14.01,2013-06-28 08:39:00,
2013-06-28 04:44:00,66.5,65.0,29.47,NE,50,0.0,0.0,95,0.00,,---,0.01,VWS V14.01,2013-06-28 08:44:00,
2013-06-28 04:49:00,66.4,64.9,29.46,NE,50,0.0,0.0,95,0.00,,---,0.01,VWS V14.01,2013-06-28 08:49:00,
2013-06-28 04:54:00,66.5,65.0,29.47,NE,41,0.0,1.0,95,0.00,,---,0.01,VWS V14.01,2013-06-28 08:54:00,
2013-06-28 04:59:00,66.5,65.0,29.47,SW,225,0.0,4.0,95,0.00,,---,0.01,VWS V14.01,2013-06-28 08:59:00,
2013-06-28 05:04:00,66.5,65.0,29.47,SW,234,0.0,0.0,95,0.00,,---,0.01,VWS V14.01,2013-06-28 09:04:00,
2013-06-28 05:09:00,66.5,65.0,29.47,WSW,243,1.0,2.0,95,0.00,,---,0.01,VWS V14.01,2013-06-28 09:09:00,
2013-06-28 05:14:00,66.5,65.0,29.47,WSW,248,0.0,1.0,95,0.00,,---,0.01,VWS V14.01,2013-06-28 09:14:00,
2013-06-28 05:19:00,66.5,65.0,29.47,WSW,250,0.0,0.0,95,0.00,,---,0.01,VWS V14.01,2013-06-28 09:19:00,
2013-06-28 05:24:00,66.5,65.0,29.47,WSW,252,0.0,0.0,95,0.00,,---,0.01,VWS V14.01,2013-06-28 09:24:00,
2013-06-28 05:29:00,66.5,65.0,29.47,WSW,254,0.0,1.0,95,0.00,,---,0.01,VWS V14.01,2013-06-28 09:29:00,
2013-06-28 05:34:00,66.5,65.0,29.47,WSW,254,0.0,4.0,95,0.00,,---,0.01,VWS V14.01,2013-06-28 09:34:00,
2013-06-28 05:39:00,66.5,65.0,29.47,WSW,254,0.0,1.0,95,0.00,,---,0.01,VWS V14.01,2013-06-28 09:39:00,
2013-06-28 05:44:00,66.5,65.0,29.48,WSW,254,0.0,1.0,95,0.00,,---,0.01,VWS V14.01,2013-06-28 09:44:00,
2013-06-28 05:49:00,66.5,65.0,29.48,WSW,254,0.0,0.0,95,0.00,,---,0.01,VWS V14.01,2013-06-28 09:49:00,
2013-06-28 05:54:00,66.5,65.0,29.47,WSW,255,0.0,0.0,95,0.00,,---,0.01,VWS V14.01,2013-06-28 09:54:00,
2013-06-28 05:59:00,66.5,65.0,29.47,WSW,255,0.0,1.0,95,0.00,,---,0.01,VWS V14.01,2013-06-28 09:59:00,
2013-06-28 06:04:00,66.5,65.0,29.48,WSW,255,0.0,1.0,95,0.00,,---,0.01,VWS V14.01,2013-06-28 10:04:00,
2013-06-28 06:09:00,66.5,65.0,29.48,WSW,255,0.0,0.0,95,0.00,,---,0.01,VWS V14.01,2013-06-28 10:09:00,
2013-06-28 06:14:00,66.4,64.9,29.48,WSW,255,0.0,1.0,95,0.00,,---,0.01,VWS V14.01,2013-06-28 10:14:00,
2013-06-28 06:19:00,66.4,64.9,29.48,WSW,255,0.0,0.0,95,0.00,,---,0.01,VWS V14.01,2013-06-28 10:19:00,
2013-06-28 06:24:00,66.4,64.9,29.47,WSW,255,0.0,0.0,95,0.00,,---,0.01,VWS V14.01,2013-06-28 10:24:00,
2013-06-28 06:29:00,66.4,64.9,29.47,WSW,255,0.0,0.0,95,0.00,,---,0.01,VWS V14.01,2013-06-28 10:29:00,
2013-06-28 06:34:00,66.3,64.8,29.47,WSW,255,0.0,0.0,95,0.00,,---,0.01,VWS V14.01,2013-06-28 10:34:00,
2013-06-28 06:39:00,66.3,64.8,29.47,WSW,255,0.0,0.0,95,0.00,,---,0.01,VWS V14.01,2013-06-28 10:39:00,
2013-06-28 06:44:00,66.3,64.8,29.48,WSW,255,0.0,1.0,95,0.00,,---,0.01,VWS V14.01,2013-06-28 10:44:00,
2013-06-28 06:49:00,66.3,65.1,29.48,WSW,255,0.0,0.0,96,0.00,,---,0.01,VWS V14.01,2013-06-28 10:49:00,
2013-06-28 06:54:00,66.3,65.1,29.48,WSW,255,0.0,0.0,96,0.00,,---,0.01,VWS V14.01,2013-06-28 10:54:00,
2013-06-28 06:59:00,66.3,65.1,29.48,WSW,255,0.0,0.0,96,0.00,,---,0.01,VWS V14.01,2013-06-28 10:59:00,
2013-06-28 07:04:00,66.3,65.1,29.48,WSW,255,0.0,0.0,96,0.00,,---,0.01,VWS V14.01,2013-06-28 11:04:00,
2013-06-28 07:09:00,66.3,65.1,29.48,WSW,255,0.0,0.0,96,0.00,,---,0.01,VWS V14.01,2013-06-28 11:09:00,
2013-06-28 07:14:00,66.3,65.1,29.48,WSW,255,0.0,0.0,96,0.00,,---,0.01,VWS V14.01,2013-06-28 11:14:00,
2013-06-28 07:19:00,66.3,65.1,29.48,WSW,255,0.0,0.0,96,0.00,,---,0.01,VWS V14.01,2013-06-28 11:19:00,
2013-06-28 07:24:00,66.3,65.1,29.48,WSW,255,0.0,0.0,96,0.00,,---,0.01,VWS V14.01,2013-06-28 11:24:00,
2013-06-28 07:29:00,66.3,65.1,29.48,WSW,255,0.0,0.0,96,0.00,,---,0.01,VWS V14.01,2013-06-28 11:29:00,
2013-06-28 07:34:00,66.3,65.1,29.48,WSW,255,0.0,1.0,96,0.00,,---,0.01,VWS V14.01,2013-06-28 11:34:00,
2013-06-28 07:39:00,66.3,65.1,29.48,WSW,256,0.0,2.0,96,0.00,,---,0.01,VWS V14.01,2013-06-28 11:39:00,
2013-06-28 07:44:00,66.3,65.1,29.48,WSW,256,0.0,0.0,96,0.00,,---,0.01,VWS V14.01,2013-06-28 11:44:00,
2013-06-28 07:49:00,66.3,65.1,29.48,West,259,0.0,3.0,96,0.00,,---,0.01,VWS V14.01,2013-06-28 11:49:00,
2013-06-28 07:54:00,66.3,65.1,29.48,West,259,0.0,1.0,96,0.00,,---,0.01,VWS V14.01,2013-06-28 11:54:00,
2013-06-28 07:59:00,66.3,65.1,29.48,West,259,0.0,1.0,96,0.00,,---,0.01,VWS V14.01,2013-06-28 11:59:00,
2013-06-28 08:04:00,66.3,65.1,29.48,West,259,0.0,0.0,96,0.00,,---,0.01,VWS V14.01,2013-06-28 12:04:00,
2013-06-28 08:09:00,66.3,65.1,29.48,West,259,0.0,0.0,96,0.00,,---,0.01,VWS V14.01,2013-06-28 12:09:00,
2013-06-28 08:14:00,66.3,65.1,29.48,West,259,0.0,0.0,96,0.00,,---,0.01,VWS V14.01,2013-06-28 12:14:00,
2013-06-28 08:19:00,66.3,65.1,29.48,West,260,0.0,2.0,96,0.00,,---,0.01,VWS V14.01,2013-06-28 12:19:00,
2013-06-28 08:24:00,66.3,65.1,29.48,West,260,0.0,1.0,96,0.00,,---,0.01,VWS V14.01,2013-06-28 12:24:00,
2013-06-28 08:29:00,66.4,65.2,29.47,West,260,0.0,1.0,96,0.00,,---,0.01,VWS V14.01,2013-06-28 12:29:00,
2013-06-28 08:34:00,66.4,65.2,29.47,West,260,0.0,0.0,96,0.00,,---,0.01,VWS V14.01,2013-06-28 12:34:00,
2013-06-28 08:39:00,66.4,65.2,29.47,West,260,0.0,0.0,96,0.00,,---,0.01,VWS V14.01,2013-06-28 12:39:00,
2013-06-28 08:44:00,66.5,65.3,29.47,West,260,0.0,0.0,96,0.00,,---,0.01,VWS V14.01,2013-06-28 12:44:00,
2013-06-28 08:49:00,66.5,65.3,29.47,West,260,0.0,0.0,96,0.00,,---,0.01,VWS V14.01,2013-06-28 12:49:00,
2013-06-28 08:54:00,66.6,65.4,29.48,West,260,0.0,0.0,96,0.00,,---,0.01,VWS V14.01,2013-06-28 12:54:00,
2013-06-28 08:59:00,66.7,65.5,29.48,West,260,0.0,1.0,96,0.00,,---,0.01,VWS V14.01,2013-06-28 12:59:00,
2013-06-28 09:04:00,66.8,65.6,29.47,West,263,0.0,2.0,96,0.00,,---,0.01,VWS V14.01,2013-06-28 13:04:00,
2013-06-28 09:09:00,66.9,65.7,29.47,West,265,0.0,1.0,96,0.00,,---,0.01,VWS V14.01,2013-06-28 13:09:00,
2013-06-28 09:14:00,67.0,65.8,29.47,West,265,0.0,3.0,96,0.00,,---,0.01,VWS V14.01,2013-06-28 13:14:00,
2013-06-28 09:19:00,67.2,66.0,29.47,West,265,0.0,0.0,96,0.00,,---,0.01,VWS V14.01,2013-06-28 13:19:00,
2013-06-28 09:24:00,67.2,66.0,29.47,West,269,0.0,2.0,96,0.00,,---,0.01,VWS V14.01,2013-06-28 13:24:00,
2013-06-28 09:29:00,67.4,66.2,29.47,West,269,0.0,1.0,96,0.00,,---,0.01,VWS V14.01,2013-06-28 13:29:00,
2013-06-28 09:34:00,67.5,66.3,29.47,West,273,0.0,2.0,96,0.00,,---,0.01,VWS V14.01,2013-06-28 13:34:00,
2013-06-28 09:39:00,67.6,66.4,29.47,WSW,248,0.0,4.0,96,0.00,,---,0.01,VWS V14.01,2013-06-28 13:39:00,
2013-06-28 09:44:00,67.7,66.5,29.47,West,265,0.0,4.0,96,0.00,,---,0.01,VWS V14.01,2013-06-28 13:44:00,
2013-06-28 09:49:00,67.8,66.6,29.47,West,279,0.0,4.0,96,0.00,,---,0.01,VWS V14.01,2013-06-28 13:49:00,
2013-06-28 09:54:00,67.9,66.7,29.47,NNW,327,1.0,6.0,96,0.00,,---,0.01,VWS V14.01,2013-06-28 13:54:00,
2013-06-28 09:59:00,68.0,66.8,29.47,North,355,0.0,2.0,96,0.00,,---,0.01,VWS V14.01,2013-06-28 13:59:00,
2013-06-28 10:04:00,68.0,66.8,29.47,WSW,252,0.0,1.0,96,0.00,,---,0.01,VWS V14.01,2013-06-28 14:04:00,
2013-06-28 10:09:00,67.9,66.7,29.47,West,270,0.0,1.0,96,0.00,,---,0.01,VWS V14.01,2013-06-28 14:09:00,
2013-06-28 10:14:00,67.8,66.6,29.47,NW,313,0.0,5.0,96,0.00,,---,0.01,VWS V14.01,2013-06-28 14:14:00,
2013-06-28 10:19:00,67.6,66.4,29.47,NW,311,0.0,5.0,96,0.00,,---,0.01,VWS V14.01,2013-06-28 14:19:00,
2013-06-28 10:24:00,67.5,66.3,29.47,NW,311,0.0,1.0,96,0.00,,---,0.01,VWS V14.01,2013-06-28 14:24:00,
2013-06-28 10:29:00,67.6,66.4,29.47,NNW,327,0.0,4.0,96,0.00,,---,0.01,VWS V14.01,2013-06-28 14:29:00,
2013-06-28 10:34:00,67.6,66.4,29.47,NW,320,0.0,5.0,96,0.00,,---,0.01,VWS V14.01,2013-06-28 14:34:00,
2013-06-28 10:39:00,67.7,66.5,29.47,NW,320,0.0,0.0,96,0.00,,---,0.01,VWS V14.01,2013-06-28 14:39:00,
2013-06-28 10:44:00,67.7,66.2,29.47,NW,304,0.0,4.0,95,0.00,,---,0.01,VWS V14.01,2013-06-28 14:44:00,
2013-06-28 10:49:00,67.7,66.2,29.46,West,264,0.0,2.0,95,0.00,,---,0.01,VWS V14.01,2013-06-28 14:49:00,
2013-06-28 10:54:00,67.7,66.2,29.46,WNW,287,0.0,2.0,95,0.00,,---,0.01,VWS V14.01,2013-06-28 14:54:00,
2013-06-28 10:59:00,67.7,66.2,29.46,NE,34,0.0,0.0,95,0.00,,---,0.01,VWS V14.01,2013-06-28 14:59:00,
2013-06-28 11:04:00,67.8,66.3,29.46,NW,306,0.0,2.0,95,0.00,,---,0.01,VWS V14.01,2013-06-28 15:04:00,
2013-06-28 11:09:00,67.7,65.9,29.47,WNW,289,0.0,2.0,94,0.00,,---,0.01,VWS V14.01,2013-06-28 15:09:00,
2013-06-28 11:14:00,67.7,65.9,29.47,SW,235,0.0,4.0,94,0.00,,---,0.01,VWS V14.01,2013-06-28 15:14:00,
2013-06-28 11:19:00,67.9,66.1,29.47,WSW,256,1.0,2.0,94,0.00,,---,0.01,VWS V14.01,2013-06-28 15:19:00,
2013-06-28 11:24:00,67.9,66.1,29.47,West,263,0.0,2.0,94,0.00,,---,0.01,VWS V14.01,2013-06-28 15:24:00,
2013-06-28 11:29:00,68.1,66.3,29.46,West,263,0.0,0.0,94,0.00,,---,0.01,VWS V14.01,2013-06-28 15:29:00,
2013-06-28 11:34:00,68.3,66.5,29.47,West,263,0.0,2.0,94,0.00,,---,0.01,VWS V14.01,2013-06-28 15:34:00,
2013-06-28 11:39:00,68.5,66.4,29.47,West,263,0.0,3.0,93,0.00,,---,0.01,VWS V14.01,2013-06-28 15:39:00,
2013-06-28 11:44:00,68.6,66.5,29.47,West,263,0.0,2.0,93,0.00,,---,0.01,VWS V14.01,2013-06-28 15:44:00,
2013-06-28 11:49:00,68.7,66.3,29.46,West,281,0.0,4.0,92,0.00,,---,0.01,VWS V14.01,2013-06-28 15:49:00,
2013-06-28 11:54:00,68.8,66.4,29.47,West,273,0.0,4.0,92,0.00,,---,0.01,VWS V14.01,2013-06-28 15:54:00,
2013-06-28 11:59:00,69.0,66.3,29.47,West,273,0.0,4.0,91,0.00,,---,0.01,VWS V14.01,2013-06-28 15:59:00,
2013-06-28 12:04:00,69.1,66.4,29.47,West,274,1.0,1.0,91,0.00,,---,0.01,VWS V14.01,2013-06-28 16:04:00,
2013-06-28 12:09:00,69.2,66.5,29.46,NW,307,0.0,1.0,91,0.00,,---,0.01,VWS V14.01,2013-06-28 16:09:00,
2013-06-28 12:14:00,69.3,66.2,29.47,West,281,0.0,5.0,90,0.00,,---,0.01,VWS V14.01,2013-06-28 16:14:00,
2013-06-28 12:19:00,69.4,66.3,29.47,West,279,0.0,4.0,90,0.00,,---,0.01,VWS V14.01,2013-06-28 16:19:00,
2013-06-28 12:24:00,69.6,66.2,29.46,West,271,0.0,2.0,89,0.00,,---,0.01,VWS V14.01,2013-06-28 16:24:00,
2013-06-28 12:29:00,69.7,66.3,29.47,WNW,282,0.0,2.0,89,0.00,,---,0.01,VWS V14.01,2013-06-28 16:29:00,
2013-06-28 12:33:00,69.8,66.4,29.47,West,277,0.0,5.0,89,0.00,,---,0.01,VWS V14.01,2013-06-28 16:33:00,
2013-06-28 12:39:00,69.9,66.2,29.47,NW,314,0.0,5.0,88,0.00,,---,0.01,VWS V14.01,2013-06-28 16:39:00,
2013-06-28 12:44:00,70.1,66.4,29.47,NW,314,0.0,1.0,88,0.00,,---,0.01,VWS V14.01,2013-06-28 16:44:00,
2013-06-28 12:49:00,70.2,66.5,29.47,NW,320,4.0,5.0,88,0.00,,---,0.01,VWS V14.01,2013-06-28 16:49:00,
2013-06-28 12:54:00,70.3,65.9,29.47,WSW,252,0.0,5.0,86,0.00,,---,0.01,VWS V14.01,2013-06-28 16:54:00,
2013-06-28 12:59:00,70.5,66.1,29.46,NW,314,0.0,4.0,86,0.00,,---,0.01,VWS V14.01,2013-06-28 16:59:00,
2013-06-28 13:04:00,70.6,65.9,29.46,WNW,292,0.0,2.0,85,0.00,,---,0.01,VWS V14.01,2013-06-28 17:04:00,
2013-06-28 13:09:00,70.8,66.4,29.46,WNW,292,0.0,1.0,86,0.00,,---,0.01,VWS V14.01,2013-06-28 17:09:00,
2013-06-28 13:13:00,70.9,66.2,29.45,WNW,294,0.0,2.0,85,0.00,,---,0.01,VWS V14.01,2013-06-28 17:13:00,
2013-06-28 13:18:00,71.1,66.7,29.45,NW,315,0.0,5.0,86,0.00,,---,0.01,VWS V14.01,2013-06-28 17:18:00,
2013-06-28 13:23:00,71.3,66.9,29.46,WNW,298,0.0,1.0,86,0.00,,---,0.01,VWS V14.01,2013-06-28 17:23:00,
2013-06-28 13:28:00,71.6,67.5,29.46,West,270,1.0,5.0,87,0.00,,---,0.01,VWS V14.01,2013-06-28 17:28:00,
2013-06-28 13:33:00,72.1,68.0,29.45,West,271,0.0,1.0,87,0.00,,---,0.01,VWS V14.01,2013-06-28 17:33:00,
2013-06-28 13:38:00,72.4,67.6,29.46,WNW,292,0.0,3.0,85,0.00,,---,0.01,VWS V14.01,2013-06-28 17:38:00,
2013-06-28 13:43:00,72.5,67.4,29.45,WNW,294,0.0,5.0,84,0.00,,---,0.01,VWS V14.01,2013-06-28 17:43:00,
2013-06-28 13:48:00,72.6,67.2,29.46,WNW,297,2.0,2.0,83,0.00,,---,0.01,VWS V14.01,2013-06-28 17:48:00,
2013-06-28 13:53:00,72.8,67.3,29.46,WNW,297,0.0,2.0,83,0.00,,---,0.01,VWS V14.01,2013-06-28 17:53:00,
2013-06-28 13:58:00,73.3,66.8,29.45,WNW,297,0.0,2.0,80,0.00,,---,0.01,VWS V14.01,2013-06-28 17:58:00,
2013-06-28 14:03:00,73.9,68.1,29.45,WNW,297,0.0,1.0,82,0.00,,---,0.01,VWS V14.01,2013-06-28 18:03:00,
2013-06-28 14:08:00,74.3,66.6,29.45,East,87,3.0,5.0,77,0.00,,---,0.01,VWS V14.01,2013-06-28 18:08:00,
2013-06-28 14:13:00,73.8,66.5,29.45,North,9,1.0,2.0,78,0.00,,---,0.01,VWS V14.01,2013-06-28 18:13:00,
2013-06-28 14:18:00,73.2,65.9,29.45,NNE,13,0.0,2.0,78,0.00,,---,0.01,VWS V14.01,2013-06-28 18:18:00,
2013-06-28 14:23:00,72.8,65.9,29.45,NNE,13,0.0,0.0,79,0.00,,---,0.01,VWS V14.01,2013-06-28 18:23:00,
2013-06-28 14:28:00,72.6,66.1,29.45,North,11,0.0,1.0,80,0.00,,---,0.01,VWS V14.01,2013-06-28 18:28:00,
2013-06-28 14:33:00,72.6,66.4,29.45,North,10,0.0,0.0,81,0.00,,---,0.01,VWS V14.01,2013-06-28 18:33:00,
2013-06-28 14:38:00,72.8,66.6,29.45,NNE,16,0.0,4.0,81,0.00,,---,0.01,VWS V14.01,2013-06-28 18:38:00,
2013-06-28 14:43:00,72.8,65.9,29.45,NNW,343,0.0,2.0,79,0.00,,---,0.01,VWS V14.01,2013-06-28 18:43:00,
2013-06-28 14:48:00,72.8,65.6,29.45,WNW,300,0.0,2.0,78,0.00,,---,0.01,VWS V14.01,2013-06-28 18:48:00,
2013-06-28 14:53:00,72.8,65.9,29.45,WNW,300,0.0,1.0,79,0.00,,---,0.01,VWS V14.01,2013-06-28 18:53:00,
2013-06-28 14:58:00,72.9,66.0,29.45,WNW,295,0.0,4.0,79,0.00,,---,0.01,VWS V14.01,2013-06-28 18:58:00,
2013-06-28 15:03:00,72.9,66.0,29.45,WNW,295,0.0,0.0,79,0.00,,---,0.01,VWS V14.01,2013-06-28 19:03:00,
2013-06-28 15:08:00,72.9,66.4,29.46,WNW,295,0.0,0.0,80,0.00,,---,0.01,VWS V14.01,2013-06-28 19:08:00,
2013-06-28 15:13:00,72.8,66.3,29.45,WNW,295,0.0,0.0,80,0.00,,---,0.01,VWS V14.01,2013-06-28 19:13:00,
2013-06-28 15:18:00,72.7,65.8,29.45,WNW,295,0.0,2.0,79,0.00,,---,0.01,VWS V14.01,2013-06-28 19:18:00,
2013-06-28 15:19:00,72.7,65.8,29.45,WNW,295,0.0,2.0,79,0.00,,---,0.01,VWS V14.01,2013-06-28 19:19:00,
2013-06-28 15:24:00,72.7,66.2,29.45,WNW,295,0.0,1.0,80,0.00,,---,0.01,VWS V14.01,2013-06-28 19:24:00,
2013-06-28 15:28:00,72.8,66.3,29.45,WNW,295,2.0,2.0,80,0.00,,---,0.01,VWS V14.01,2013-06-28 19:28:00,
2013-06-28 15:33:00,72.7,66.2,29.45,WNW,295,0.0,0.0,80,0.00,,---,0.01,VWS V14.01,2013-06-28 19:33:00,
2013-06-28 15:38:00,72.6,66.1,29.45,West,277,0.0,4.0,80,0.00,,---,0.01,VWS V14.01,2013-06-28 19:38:00,
2013-06-28 15:43:00,72.6,66.4,29.45,West,265,4.0,6.0,81,0.00,,---,0.01,VWS V14.01,2013-06-28 19:43:00,
2013-06-28 15:48:00,72.6,66.4,29.45,West,265,0.0,1.0,81,0.00,,---,0.01,VWS V14.01,2013-06-28 19:48:00,
2013-06-28 15:53:00,72.5,66.3,29.45,West,265,1.0,7.0,81,0.00,,---,0.01,VWS V14.01,2013-06-28 19:53:00,
2013-06-28 15:58:00,72.5,66.3,29.45,West,265,0.0,2.0,81,0.00,,---,0.01,VWS V14.01,2013-06-28 19:58:00,
2013-06-28 16:03:00,72.4,66.2,29.45,West,265,1.0,3.0,81,0.00,,---,0.01,VWS V14.01,2013-06-28 20:03:00,
2013-06-28 16:08:00,72.3,66.2,29.45,West,265,0.0,4.0,81,0.00,,---,0.01,VWS V14.01,2013-06-28 20:08:00,
2013-06-28 16:13:00,72.2,66.1,29.45,West,265,3.0,4.0,81,0.00,,---,0.01,VWS V14.01,2013-06-28 20:13:00,
2013-06-28 16:18:00,72.1,65.9,29.45,West,265,0.0,1.0,81,0.00,,---,0.01,VWS V14.01,2013-06-28 20:18:00,
2013-06-28 16:23:00,71.9,66.1,29.45,West,265,0.0,0.0,82,0.00,,---,0.01,VWS V14.01,2013-06-28 20:23:00,
2013-06-28 16:28:00,71.8,66.0,29.45,West,265,0.0,1.0,82,0.00,,---,0.01,VWS V14.01,2013-06-28 20:28:00,
2013-06-28 16:33:00,71.7,66.3,29.45,WNW,294,4.0,4.0,83,0.00,,---,0.01,VWS V14.01,2013-06-28 20:33:00,
2013-06-28 16:38:00,71.5,66.4,29.45,WSW,257,0.0,5.0,84,0.00,,---,0.01,VWS V14.01,2013-06-28 20:38:00,
2013-06-28 16:43:00,71.4,66.7,29.45,West,259,0.0,0.0,85,0.00,,---,0.01,VWS V14.01,2013-06-28 20:43:00,
2013-06-28 16:48:00,71.2,66.5,29.45,WNW,294,0.0,7.0,85,0.00,,---,0.01,VWS V14.01,2013-06-28 20:48:00,
2013-06-28 16:53:00,71.1,66.7,29.45,West,280,0.0,2.0,86,0.00,,---,0.01,VWS V14.01,2013-06-28 20:53:00,
2013-06-28 16:58:00,71.1,66.7,29.44,WNW,287,0.0,3.0,86,0.00,,---,0.01,VWS V14.01,2013-06-28 20:58:00,
2013-06-28 17:03:00,71.0,66.6,29.45,NW,323,0.0,5.0,86,0.00,,---,0.01,VWS V14.01,2013-06-28 21:03:00,
2013-06-28 17:08:00,71.0,66.6,29.44,NW,323,0.0,6.0,86,0.00,,---,0.01,VWS V14.01,2013-06-28 21:08:00,
2013-06-28 17:13:00,70.8,66.1,29.44,NNW,336,0.0,5.0,85,0.00,,---,0.01,VWS V14.01,2013-06-28 21:13:00,
2013-06-28 17:18:00,70.8,65.7,29.44,North,355,0.0,2.0,84,0.00,,---,0.01,VWS V14.01,2013-06-28 21:18:00,
2013-06-28 17:23:00,70.8,66.1,29.44,NNE,12,1.0,7.0,85,0.00,,---,0.01,VWS V14.01,2013-06-28 21:23:00,
2013-06-28 17:28:00,70.7,65.3,29.44,NNE,21,0.0,4.0,83,0.00,,---,0.01,VWS V14.01,2013-06-28 21:28:00,
2013-06-28 17:33:00,70.6,65.5,29.44,North,351,3.0,3.0,84,0.00,,---,0.01,VWS V14.01,2013-06-28 21:33:00,
2013-06-28 17:38:00,70.8,66.1,29.44,North,350,0.0,0.0,85,0.00,,---,0.01,VWS V14.01,2013-06-28 21:38:00,
2013-06-28 17:43:00,71.6,66.2,29.43,North,5,0.0,5.0,83,0.00,,---,0.01,VWS V14.01,2013-06-28 21:43:00,
2013-06-28 17:48:00,71.7,65.9,29.43,North,351,1.0,3.0,82,0.00,,---,0.01,VWS V14.01,2013-06-28 21:48:00,
2013-06-28 17:53:00,71.7,65.6,29.43,NW,321,0.0,7.0,81,0.00,,---,0.01,VWS V14.01,2013-06-28 21:53:00,
2013-06-28 17:58:00,71.6,66.2,29.44,NW,321,0.0,1.0,83,0.00,,---,0.01,VWS V14.01,2013-06-28 21:58:00,
2013-06-28 18:03:00,71.7,65.6,29.44,NW,321,0.0,4.0,81,0.00,,---,0.01,VWS V14.01,2013-06-28 22:03:00,
2013-06-28 18:08:00,71.6,65.1,29.45,NW,322,0.0,5.0,80,0.00,,---,0.01,VWS V14.01,2013-06-28 22:08:00,
2013-06-28 18:13:00,71.6,65.1,29.45,NW,322,0.0,1.0,80,0.00,,---,0.01,VWS V14.01,2013-06-28 22:13:00,
2013-06-28 18:18:00,71.4,64.9,29.45,NW,321,0.0,2.0,80,0.00,,---,0.01,VWS V14.01,2013-06-28 22:18:00,
2013-06-28 18:23:00,71.4,64.9,29.45,NNW,346,3.0,3.0,80,0.00,,---,0.01,VWS V14.01,2013-06-28 22:23:00,
2013-06-28 18:28:00,71.3,64.8,29.45,NNW,343,0.0,0.0,80,0.00,,---,0.01,VWS V14.01,2013-06-28 22:28:00,
2013-06-28 18:33:00,71.3,65.2,29.45,NNW,343,0.0,1.0,81,0.00,,---,0.01,VWS V14.01,2013-06-28 22:33:00,
2013-06-28 18:38:00,71.1,65.0,29.45,NNW,341,0.0,0.0,81,0.00,,---,0.01,VWS V14.01,2013-06-28 22:38:00,
2013-06-28 18:43:00,71.0,64.9,29.45,NNW,331,0.0,0.0,81,0.00,,---,0.01,VWS V14.01,2013-06-28 22:43:00,
2013-06-28 18:48:00,70.8,64.7,29.46,NNW,331,0.0,0.0,81,0.00,,---,0.01,VWS V14.01,2013-06-28 22:48:00,
2013-06-28 18:53:00,70.5,64.4,29.46,WSW,253,0.0,6.0,81,0.00,,---,0.01,VWS V14.01,2013-06-28 22:53:00,
2013-06-28 18:58:00,70.2,64.1,29.46,WSW,253,0.0,4.0,81,0.00,,---,0.01,VWS V14.01,2013-06-28 22:58:00,
2013-06-28 19:03:00,69.9,63.8,29.47,WSW,255,0.0,7.0,81,0.00,,---,0.01,VWS V14.01,2013-06-28 23:03:00,
2013-06-28 19:08:00,69.6,63.9,29.46,West,259,0.0,2.0,82,0.00,,---,0.01,VWS V14.01,2013-06-28 23:08:00,
2013-06-28 19:13:00,69.4,63.7,29.47,West,260,0.0,0.0,82,0.00,,---,0.01,VWS V14.01,2013-06-28 23:13:00,
2013-06-28 19:18:00,69.1,63.7,29.47,WNW,295,0.0,3.0,83,0.00,,---,0.01,VWS V14.01,2013-06-28 23:18:00,
2013-06-28 19:23:00,69.0,63.6,29.47,West,278,2.0,5.0,83,0.00,,---,0.01,VWS V14.01,2013-06-28 23:23:00,
2013-06-28 19:28:00,68.9,63.5,29.47,NW,311,0.0,5.0,83,0.00,,---,0.01,VWS V14.01,2013-06-28 23:28:00,
2013-06-28 19:33:00,68.8,63.4,29.47,NW,312,0.0,1.0,83,0.00,,---,0.01,VWS V14.01,2013-06-28 23:33:00,
2013-06-28 19:38:00,68.7,63.3,29.47,NW,312,0.0,1.0,83,0.00,,---,0.01,VWS V14.01,2013-06-28 23:38:00,
2013-06-28 19:43:00,68.6,63.2,29.47,NW,312,0.0,0.0,83,0.00,,---,0.01,VWS V14.01,2013-06-28 23:43:00,
2013-06-28 19:48:00,68.6,63.2,29.47,NW,312,0.0,0.0,83,0.00,,---,0.01,VWS V14.01,2013-06-28 23:48:00,
2013-06-28 19:53:00,68.4,63.0,29.46,NW,311,0.0,0.0,83,0.00,,---,0.01,VWS V14.01,2013-06-28 23:53:00,
2013-06-28 19:58:00,68.3,62.9,29.47,NW,311,0.0,0.0,83,0.00,,---,0.01,VWS V14.01,2013-06-28 23:58:00,
2013-06-28 20:03:00,68.2,62.8,29.46,NW,311,0.0,0.0,83,0.00,,---,0.01,VWS V14.01,2013-06-29 00:03:00,
2013-06-28 20:08:00,68.0,62.7,29.46,NW,311,0.0,0.0,83,0.00,,---,0.01,VWS V14.01,2013-06-29 00:08:00,
2013-06-28 20:13:00,67.9,62.5,29.46,NW,311,0.0,1.0,83,0.00,,---,0.01,VWS V14.01,2013-06-29 00:13:00,
2013-06-28 20:18:00,67.7,62.4,29.47,NW,311,0.0,0.0,83,0.00,,---,0.01,VWS V14.01,2013-06-29 00:18:00,
2013-06-28 20:23:00,67.5,62.5,29.47,NW,311,0.0,0.0,84,0.00,,---,0.01,VWS V14.01,2013-06-29 00:23:00,
2013-06-28 20:28:00,67.4,62.4,29.47,NW,311,0.0,0.0,84,0.00,,---,0.01,VWS V14.01,2013-06-29 00:28:00,
2013-06-28 20:33:00,67.3,62.3,29.47,NW,311,0.0,1.0,84,0.00,,---,0.01,VWS V14.01,2013-06-29 00:33:00,
2013-06-28 20:38:00,67.1,62.5,29.47,NW,311,0.0,0.0,85,0.00,,---,0.01,VWS V14.01,2013-06-29 00:38:00,
2013-06-28 20:43:00,67.0,62.3,29.47,NW,311,0.0,0.0,85,0.00,,---,0.01,VWS V14.01,2013-06-29 00:43:00,
2013-06-28 20:48:00,66.8,62.2,29.47,WNW,303,0.0,4.0,85,0.00,,---,0.01,VWS V14.01,2013-06-29 00:48:00,
2013-06-28 20:53:00,66.6,62.0,29.47,WNW,303,0.0,0.0,85,0.00,,---,0.01,VWS V14.01,2013-06-29 00:53:00,
2013-06-28 20:58:00,66.4,61.8,29.48,WNW,303,0.0,0.0,85,0.00,,---,0.01,VWS V14.01,2013-06-29 00:58:00,
2013-06-28 21:03:00,66.2,61.6,29.48,WNW,303,0.0,0.0,85,0.00,,---,0.01,VWS V14.01,2013-06-29 01:03:00,
2013-06-28 21:08:00,66.0,61.4,29.47,WNW,303,0.0,0.0,85,0.00,,---,0.01,VWS V14.01,2013-06-29 01:08:00,
2013-06-28 21:13:00,65.8,61.2,29.48,WNW,303,0.0,0.0,85,0.00,,---,0.01,VWS V14.01,2013-06-29 01:13:00,
2013-06-28 21:18:00,65.6,61.3,29.48,WNW,303,0.0,0.0,86,0.00,,---,0.01,VWS V14.01,2013-06-29 01:18:00,
2013-06-28 21:23:00,65.4,61.1,29.48,WNW,303,0.0,0.0,86,0.00,,---,0.01,VWS V14.01,2013-06-29 01:23:00,
2013-06-28 21:28:00,65.2,60.9,29.48,WNW,303,0.0,0.0,86,0.00,,---,0.01,VWS V14.01,2013-06-29 01:28:00,
2013-06-28 21:33:00,65.1,60.8,29.48,WNW,303,0.0,0.0,86,0.00,,---,0.01,VWS V14.01,2013-06-29 01:33:00,
2013-06-28 21:38:00,64.9,60.6,29.48,WNW,303,0.0,0.0,86,0.00,,---,0.01,VWS V14.01,2013-06-29 01:38:00,
2013-06-28 21:43:00,64.7,60.4,29.49,WNW,303,0.0,0.0,86,0.00,,---,0.01,VWS V14.01,2013-06-29 01:43:00,
2013-06-28 21:48:00,64.5,60.2,29.48,WNW,303,0.0,0.0,86,0.00,,---,0.01,VWS V14.01,2013-06-29 01:48:00,
2013-06-28 21:53:00,64.4,60.1,29.48,WNW,303,0.0,0.0,86,0.00,,---,0.01,VWS V14.01,2013-06-29 01:53:00,
2013-06-28 21:58:00,64.2,60.3,29.49,WNW,303,0.0,0.0,87,0.00,,---,0.01,VWS V14.01,2013-06-29 01:58:00,
2013-06-28 22:03:00,64.1,60.2,29.49,WNW,303,0.0,0.0,87,0.00,,---,0.01,VWS V14.01,2013-06-29 02:03:00,
2013-06-28 22:08:00,63.9,60.0,29.49,WNW,303,0.0,0.0,87,0.00,,---,0.01,VWS V14.01,2013-06-29 02:08:00,
2013-06-28 22:13:00,63.8,59.9,29.49,WNW,303,0.0,0.0,87,0.00,,---,0.01,VWS V14.01,2013-06-29 02:13:00,
2013-06-28 22:18:00,63.6,59.7,29.49,WNW,303,0.0,0.0,87,0.00,,---,0.01,VWS V14.01,2013-06-29 02:18:00,
2013-06-28 22:23:00,63.5,59.6,29.48,WNW,303,0.0,0.0,87,0.00,,---,0.01,VWS V14.01,2013-06-29 02:23:00,
2013-06-28 22:28:00,63.4,59.5,29.48,WNW,303,0.0,0.0,87,0.00,,---,0.01,VWS V14.01,2013-06-29 02:28:00,
2013-06-28 22:33:00,63.3,59.7,29.48,WNW,303,0.0,0.0,88,0.00,,---,0.01,VWS V14.01,2013-06-29 02:33:00,
2013-06-28 22:38:00,63.2,59.6,29.48,WNW,303,0.0,0.0,88,0.00,,---,0.01,VWS V14.01,2013-06-29 02:38:00,
2013-06-28 22:43:00,63.1,59.5,29.48,WNW,303,0.0,0.0,88,0.00,,---,0.01,VWS V14.01,2013-06-29 02:43:00,
2013-06-28 22:48:00,63.1,59.8,29.48,WNW,303,0.0,0.0,89,0.00,,---,0.01,VWS V14.01,2013-06-29 02:48:00,
2013-06-28 22:53:00,63.0,59.7,29.49,WNW,303,0.0,0.0,89,0.00,,---,0.01,VWS V14.01,2013-06-29 02:53:00,
2013-06-28 22:58:00,62.9,59.6,29.49,WNW,303,0.0,0.0,89,0.00,,---,0.01,VWS V14.01,2013-06-29 02:58:00,
2013-06-28 23:00:00,62.6,60.2,29.48,WNW,303,0.0,0.0,92,0.00,,---,0.01,VWS V14.01,2013-06-29 03:00:00,
2013-06-28 23:01:00,62.6,59.9,29.48,WNW,303,0.0,0.0,91,0.00,,---,0.01,VWS V14.01,2013-06-29 03:01:00,
2013-06-28 23:02:00,62.7,59.7,29.48,WNW,303,0.0,0.0,90,0.00,,---,0.01,VWS V14.01,2013-06-29 03:02:00,
2013-06-28 23:03:00,62.8,59.5,29.49,WNW,303,0.0,0.0,89,0.00,,---,0.01,VWS V14.01,2013-06-29 03:03:00,
2013-06-28 23:04:00,62.7,60.0,29.48,WNW,303,0.0,0.0,91,0.00,,---,0.01,VWS V14.01,2013-06-29 03:04:00,
2013-06-28 23:08:00,62.7,59.4,29.49,WNW,303,0.0,0.0,89,0.00,,---,0.01,VWS V14.01,2013-06-29 03:08:00,
2013-06-28 23:13:00,62.6,59.3,29.49,WNW,303,0.0,0.0,89,0.00,,---,0.01,VWS V14.01,2013-06-29 03:13:00,
2013-06-28 23:18:00,62.6,59.3,29.49,WNW,303,0.0,0.0,89,0.00,,---,0.01,VWS V14.01,2013-06-29 03:18:00,
2013-06-28 23:23:00,62.5,59.2,29.49,WNW,303,0.0,0.0,89,0.00,,---,0.01,VWS V14.01,2013-06-29 03:23:00,
2013-06-28 23:28:00,62.5,59.2,29.49,WNW,303,0.0,0.0,89,0.00,,---,0.01,VWS V14.01,2013-06-29 03:28:00,
2013-06-28 23:33:00,62.5,59.5,29.48,WNW,303,0.0,0.0,90,0.00,,---,0.01,VWS V14.01,2013-06-29 03:33:00,
2013-06-28 23:38:00,62.5,59.5,29.49,WNW,303,0.0,0.0,90,0.00,,---,0.01,VWS V14.01,2013-06-29 03:38:00,
2013-06-28 23:43:00,62.5,59.5,29.49,WNW,303,0.0,0.0,90,0.00,,---,0.01,VWS V14.01,2013-06-29 03:43:00,
2013-06-28 23:48:00,62.6,59.6,29.48,WNW,303,0.0,0.0,90,0.00,,---,0.01,VWS V14.01,2013-06-29 03:48:00,
2013-06-28 23:53:00,62.6,59.6,29.48,WNW,303,0.0,0.0,90,0.00,,---,0.01,VWS V14.01,2013-06-29 03:53:00,
2013-06-28 23:58:00,62.6,60.2,29.48,WNW,303,0.0,0.0,92,0.00,,---,0.01,VWS V14.01,2013-06-29 03:58:00,